Time,TemperatureF,DewpointF,PressureIn,WindDirection,WindDirectionDegrees,WindSpeedMPH,WindSpeedGustMPH,Humidity,HourlyPrecipIn,Conditions,Clouds,dailyrainin,SoftwareType,DateUTC
2013-02-26 00:01:00,47.0,25.0,-100.00,SW,216,18.0,26.0,41,0.00,,,0.00,,2013-02-26 08:01:00,
2013-02-26 00:11:00,47.0,25.0,-100.00,SW,216,18.0,26.0,41,0.00,,,0.00,,2013-02-26 08:11:00,
2013-02-26 00:42:00,46.0,26.0,-100.00,SSW,201,14.0,28.0,46,0.00,,,0.00,,2013-02-26 08:42:00,
2013-02-26 00:52:00,46.0,26.0,-100.00,SSW,201,14.0,28.0,46,0.00,,,0.00,,2013-02-26 08:52:00,
2013-02-26 01:01:00,46.0,26.0,-100.00,SSW,201,14.0,28.0,46,0.00,,,0.00,,2013-02-26 09:01:00,
2013-02-26 01:11:00,46.0,26.0,-100.00,SSW,201,14.0,28.0,46,0.00,,,0.00,,2013-02-26 09:11:00,
2013-02-26 01:43:00,45.0,24.0,-100.00,SSW,200,8.0,24.0,44,0.00,,,0.00,,2013-02-26 09:43:00,
2013-02-26 01:52:00,45.0,24.0,-100.00,SSW,200,8.0,24.0,44,0.00,,,0.00,,2013-02-26 09:52:00,
2013-02-26 02:01:00,45.0,24.0,-100.00,SSW,200,8.0,24.0,44,0.00,,,0.00,,2013-02-26 10:01:00,
2013-02-26 02:11:00,45.0,24.0,-100.00,SSW,200,8.0,24.0,44,0.00,,,0.00,,2013-02-26 10:11:00,
2013-02-26 02:42:00,45.0,25.0,-100.00,SSW,208,8.0,17.0,46,0.00,,,0.00,,2013-02-26 10:42:00,
2013-02-26 02:52:00,45.0,25.0,-100.00,SSW,208,8.0,17.0,46,0.00,,,0.00,,2013-02-26 10:52:00,
2013-02-26 03:01:00,45.0,25.0,-100.00,SSW,208,8.0,17.0,46,0.00,,,0.00,,2013-02-26 11:01:00,
2013-02-26 03:11:00,45.0,25.0,-100.00,SSW,208,8.0,17.0,46,0.00,,,0.00,,2013-02-26 11:11:00,
2013-02-26 03:32:00,44.0,26.0,-100.00,SSW,206,11.0,19.0,49,0.00,,,0.00,,2013-02-26 11:32:00,
2013-02-26 03:42:00,44.0,26.0,-100.00,SSW,206,11.0,19.0,49,0.00,,,0.00,,2013-02-26 11:42:00,
2013-02-26 03:52:00,44.0,26.0,-100.00,SSW,206,11.0,19.0,49,0.00,,,0.00,,2013-02-26 11:52:00,
2013-02-26 04:01:00,44.0,26.0,-100.00,SSW,206,11.0,19.0,49,0.00,,,0.00,,2013-02-26 12:01:00,
2013-02-26 04:11:00,44.0,26.0,-100.00,SSW,206,11.0,19.0,49,0.00,,,0.00,,2013-02-26 12:11:00,
2013-02-26 04:32:00,43.0,27.0,-100.00,SSW,202,5.0,21.0,52,0.00,,,0.00,,2013-02-26 12:32:00,
2013-02-26 04:42:00,43.0,27.0,-100.00,SSW,202,5.0,21.0,52,0.00,,,0.00,,2013-02-26 12:42:00,
2013-02-26 04:53:00,43.0,27.0,-100.00,SSW,202,5.0,21.0,52,0.00,,,0.00,,2013-02-26 12:53:00,
2013-02-26 05:01:00,43.0,27.0,-100.00,SSW,202,5.0,21.0,52,0.00,,,0.00,,2013-02-26 13:01:00,
2013-02-26 05:11:00,43.0,27.0,-100.00,SSW,202,5.0,21.0,52,0.00,,,0.00,,2013-02-26 13:11:00,
2013-02-26 05:42:00,37.0,25.0,-100.00,SSE,167,4.0,6.0,62,0.00,,,0.00,,2013-02-26 13:42:00,
2013-02-26 05:52:00,37.0,25.0,-100.00,SSE,167,4.0,6.0,62,0.00,,,0.00,,2013-02-26 13:52:00,
2013-02-26 06:01:00,37.0,25.0,-100.00,SSE,167,4.0,6.0,62,0.00,,,0.00,,2013-02-26 14:01:00,
2013-02-26 06:11:00,37.0,25.0,-100.00,SSE,167,4.0,6.0,62,0.00,,,0.00,,2013-02-26 14:11:00,
2013-02-26 06:32:00,36.0,25.0,-100.00,SSE,162,4.0,6.0,65,0.00,,,0.00,,2013-02-26 14:32:00,
2013-02-26 06:42:00,36.0,25.0,-100.00,SSE,162,4.0,6.0,65,0.00,,,0.00,,2013-02-26 14:42:00,
2013-02-26 06:52:00,36.0,25.0,-100.00,SSE,162,4.0,6.0,65,0.00,,,0.00,,2013-02-26 14:52:00,
2013-02-26 07:01:00,36.0,25.0,-100.00,SSE,162,4.0,6.0,65,0.00,,,0.00,,2013-02-26 15:01:00,
2013-02-26 07:11:00,36.0,25.0,-100.00,SSE,162,4.0,6.0,65,0.00,,,0.00,,2013-02-26 15:11:00,
2013-02-26 07:32:00,36.0,26.0,-100.00,WSW,256,2.0,6.0,67,0.00,,,0.00,,2013-02-26 15:32:00,
2013-02-26 07:42:00,36.0,26.0,-100.00,WSW,256,2.0,6.0,67,0.00,,,0.00,,2013-02-26 15:42:00,
2013-02-26 07:52:00,36.0,26.0,-100.00,WSW,256,2.0,6.0,67,0.00,,,0.00,,2013-02-26 15:52:00,
2013-02-26 08:01:00,36.0,26.0,-100.00,WSW,256,2.0,6.0,67,0.00,,,0.00,,2013-02-26 16:01:00,
2013-02-26 08:11:00,36.0,26.0,-100.00,WSW,256,2.0,6.0,67,0.00,,,0.00,,2013-02-26 16:11:00,
2013-02-26 08:32:00,40.0,28.0,-100.00,SSE,163,5.0,7.0,62,0.00,,,0.00,,2013-02-26 16:32:00,
2013-02-26 08:42:00,40.0,28.0,-100.00,SSE,163,5.0,7.0,62,0.00,,,0.00,,2013-02-26 16:42:00,
2013-02-26 08:52:00,40.0,28.0,-100.00,SSE,163,5.0,7.0,62,0.00,,,0.00,,2013-02-26 16:52:00,
2013-02-26 09:01:00,40.0,28.0,-100.00,SSE,163,5.0,7.0,62,0.00,,,0.00,,2013-02-26 17:01:00,
2013-02-26 09:11:00,40.0,28.0,-100.00,SSE,163,5.0,7.0,62,0.00,,,0.00,,2013-02-26 17:11:00,
2013-02-26 09:42:00,46.0,26.0,-100.00,NW,316,4.0,6.0,45,0.00,,,0.00,,2013-02-26 17:42:00,
2013-02-26 09:52:00,46.0,26.0,-100.00,NW,316,4.0,6.0,45,0.00,,,0.00,,2013-02-26 17:52:00,
2013-02-26 10:01:00,46.0,26.0,-100.00,NW,316,4.0,6.0,45,0.00,,,0.00,,2013-02-26 18:01:00,
2013-02-26 10:12:00,46.0,26.0,-100.00,NW,316,4.0,6.0,45,0.00,,,0.00,,2013-02-26 18:12:00,
2013-02-26 10:32:00,50.0,28.0,-100.00,NNE,26,4.0,7.0,42,0.00,,,0.00,,2013-02-26 18:32:00,
2013-02-26 10:42:00,50.0,28.0,-100.00,NNE,26,4.0,7.0,42,0.00,,,0.00,,2013-02-26 18:42:00,
2013-02-26 10:52:00,50.0,28.0,-100.00,NNE,26,4.0,7.0,42,0.00,,,0.00,,2013-02-26 18:52:00,
2013-02-26 11:01:00,50.0,28.0,-100.00,NNE,26,4.0,7.0,42,0.00,,,0.00,,2013-02-26 19:01:00,
2013-02-26 11:11:00,50.0,28.0,-100.00,NNE,26,4.0,7.0,42,0.00,,,0.00,,2013-02-26 19:11:00,
2013-02-26 11:42:00,54.0,29.0,-100.00,North,3,5.0,8.0,38,0.00,,,0.00,,2013-02-26 19:42:00,
2013-02-26 11:52:00,54.0,29.0,-100.00,North,3,5.0,8.0,38,0.00,,,0.00,,2013-02-26 19:52:00,
2013-02-26 12:01:00,54.0,29.0,-100.00,North,3,5.0,8.0,38,0.00,,,0.00,,2013-02-26 20:01:00,
2013-02-26 12:11:00,54.0,29.0,-100.00,North,3,5.0,8.0,38,0.00,,,0.00,,2013-02-26 20:11:00,
2013-02-26 14:42:00,62.0,28.0,-100.00,North,8,3.0,10.0,27,-99.99,,,0.00,,2013-02-26 22:42:00,
2013-02-26 14:52:00,62.0,28.0,-100.00,North,8,3.0,10.0,27,-99.99,,,0.00,,2013-02-26 22:52:00,
2013-02-26 15:01:00,62.0,28.0,-100.00,North,8,3.0,10.0,27,-99.99,,,0.00,,2013-02-26 23:01:00,
2013-02-26 15:11:00,62.0,28.0,-100.00,North,8,3.0,10.0,27,-99.99,,,0.00,,2013-02-26 23:11:00,
2013-02-26 15:42:00,60.0,31.0,-100.00,WSW,239,13.0,20.0,33,0.00,,,0.00,,2013-02-26 23:42:00,
2013-02-26 15:52:00,60.0,31.0,-100.00,WSW,239,13.0,20.0,33,0.00,,,0.00,,2013-02-26 23:52:00,
2013-02-26 16:01:00,60.0,31.0,-100.00,WSW,239,13.0,20.0,33,0.00,,,0.00,,2013-02-27 00:01:00,
2013-02-26 16:42:00,57.0,31.0,-100.00,WSW,247,14.0,23.0,37,0.00,,,0.00,,2013-02-27 00:42:00,
2013-02-26 16:52:00,57.0,31.0,-100.00,WSW,247,14.0,23.0,37,0.00,,,0.00,,2013-02-27 00:52:00,
2013-02-26 17:01:00,57.0,31.0,-100.00,WSW,247,14.0,23.0,37,0.00,,,0.00,,2013-02-27 01:01:00,
2013-02-26 17:11:00,57.0,31.0,-100.00,WSW,247,14.0,23.0,37,0.00,,,0.00,,2013-02-27 01:11:00,
2013-02-26 17:42:00,53.0,32.0,-100.00,SW,235,9.0,25.0,45,0.00,,,0.00,,2013-02-27 01:42:00,
2013-02-26 17:52:00,53.0,32.0,-100.00,SW,235,9.0,25.0,45,0.00,,,0.00,,2013-02-27 01:52:00,
2013-02-26 18:01:00,53.0,32.0,-100.00,SW,235,9.0,25.0,45,0.00,,,0.00,,2013-02-27 02:01:00,
2013-02-26 18:13:00,53.0,32.0,-100.00,SW,235,9.0,25.0,45,0.00,,,0.00,,2013-02-27 02:13:00,
2013-02-26 18:42:00,50.0,32.0,-100.00,SSW,199,8.0,19.0,50,0.00,,,0.00,,2013-02-27 02:42:00,
2013-02-26 18:52:00,50.0,32.0,-100.00,SSW,199,8.0,19.0,50,0.00,,,0.00,,2013-02-27 02:52:00,
2013-02-26 19:01:00,50.0,32.0,-100.00,SSW,199,8.0,19.0,50,0.00,,,0.00,,2013-02-27 03:01:00,
2013-02-26 19:11:00,50.0,32.0,-100.00,SSW,199,8.0,19.0,50,0.00,,,0.00,,2013-02-27 03:11:00,
2013-02-26 19:32:00,49.0,33.0,-100.00,South,171,4.0,19.0,53,0.00,,,0.00,,2013-02-27 03:32:00,
2013-02-26 19:42:00,49.0,33.0,-100.00,South,171,4.0,19.0,53,0.00,,,0.00,,2013-02-27 03:42:00,
2013-02-26 19:52:00,49.0,33.0,-100.00,South,171,4.0,19.0,53,0.00,,,0.00,,2013-02-27 03:52:00,
2013-02-26 20:01:00,49.0,33.0,-100.00,South,171,4.0,19.0,53,0.00,,,0.00,,2013-02-27 04:01:00,
2013-02-26 20:11:00,49.0,33.0,-100.00,South,171,4.0,19.0,53,0.00,,,0.00,,2013-02-27 04:11:00,
2013-02-26 20:42:00,46.0,29.0,-100.00,South,169,5.0,7.0,51,0.00,,,0.00,,2013-02-27 04:42:00,
2013-02-26 20:52:00,46.0,29.0,-100.00,South,169,5.0,7.0,51,0.00,,,0.00,,2013-02-27 04:52:00,
2013-02-26 21:01:00,46.0,29.0,-100.00,South,169,5.0,7.0,51,0.00,,,0.00,,2013-02-27 05:01:00,
2013-02-26 21:11:00,46.0,29.0,-100.00,South,169,5.0,7.0,51,0.00,,,0.00,,2013-02-27 05:11:00,
2013-02-26 21:42:00,45.0,28.0,-100.00,South,181,3.0,6.0,52,0.00,,,-99.99,,2013-02-27 05:42:00,
2013-02-26 21:52:00,45.0,28.0,-100.00,South,181,3.0,6.0,52,0.00,,,-99.99,,2013-02-27 05:52:00,
2013-02-26 22:02:00,45.0,28.0,-100.00,South,181,3.0,6.0,52,0.00,,,-99.99,,2013-02-27 06:02:00,
2013-02-26 22:11:00,45.0,28.0,-100.00,South,181,3.0,6.0,52,0.00,,,-99.99,,2013-02-27 06:11:00,
2013-02-26 22:33:00,43.0,29.0,-100.00,SSE,159,3.0,5.0,58,0.00,,,0.00,,2013-02-27 06:33:00,
2013-02-26 22:42:00,43.0,29.0,-100.00,SSE,159,3.0,5.0,58,0.00,,,0.00,,2013-02-27 06:42:00,
2013-02-26 22:52:00,43.0,29.0,-100.00,SSE,159,3.0,5.0,58,0.00,,,0.00,,2013-02-27 06:52:00,
2013-02-26 23:01:00,43.0,29.0,-100.00,SSE,159,3.0,5.0,58,0.00,,,0.00,,2013-02-27 07:01:00,
2013-02-26 23:11:00,43.0,29.0,-100.00,SSE,159,3.0,5.0,58,0.00,,,0.00,,2013-02-27 07:11:00,
2013-02-26 23:32:00,41.0,30.0,-100.00,SSE,161,5.0,6.0,65,0.00,,,-99.99,,2013-02-27 07:32:00,
2013-02-26 23:42:00,41.0,30.0,-100.00,SSE,161,5.0,6.0,65,0.00,,,-99.99,,2013-02-27 07:42:00,
2013-02-26 23:52:00,41.0,30.0,-100.00,SSE,161,5.0,6.0,65,0.00,,,-99.99,,2013-02-27 07:52:00,